User: anonymous   Login
Location: Błażejewo
(52.2178°N, 17.0984°E)
Time: 19:33:06
(UTC+02:00)
Language:

ISS - Orbit

View from above orbital plane
View from above orbital plane
View from above satellite
View from above satellite

Ground track
Ground track

The orbit data is extracted from the following two-line orbital elements,

1 25544U 98067A   18263.50860825  .00016717  00000-0  10270-3 0  9034
2 25544  51.6375 263.6853 0004337 176.6302 183.4880 15.53851833 13338
Epoch (UTC): 20 September 2018 12:12:23
Eccentricity: 0.0004337
inclination: 51.6375°
perigee height: 402 km
apogee height: 408 km
right ascension of ascending node: 263.6853°
argument of perigee: 176.6302°
revolutions per day: 15.53851833
mean anomaly at epoch: 183.4880°
orbit number at epoch: 1333

The dashed part of the orbit path shows where the satellite is in the earth's shadow,  

DLR